Weather History for Fryeburg, ME

Change the Weather History Date:

Monday, January 28, 2013

  Actual Average Record
Temperature  
Mean Temperature 8 °F -  
Max Temperature 21 °F 28 °F 51 °F (2006)
Min Temperature -5 °F 3 °F -26 °F (2003)
Degree Days  
Heating Degree Days 57    
Moisture  
Dew Point 9 °F    
Average Humidity 81    
Maximum Humidity 93    
Minimum Humidity 45    
Precipitation  
Precipitation 0.10 in - - ()
Sea Level Pressure  
Sea Level Pressure 30.20 in    
Wind  
Wind Speed 0 mph (West)    
Max Wind Speed 4 mph    
Max Gust Speed -    
Visibility 5 miles    
Events Snow    
Averages and records for this station are not official NWS values.
T = Trace of Precipitation, MM = Missing Value Source: NWS Daily Summary

Daily Weather History Graph

Daily Weather History Graph

Search for Another Location

Airport:

Trip Planner

Search our weather history database for the weather conditions in past years. The results will help you decide how hot, cold, wet, or windy it might be!

Date:

Astronomy

Jan. 28, 2013 Rise Set
Actual Time 7:05 AM EST 4:49 PM EST
Civil Twilight 6:34 AM EST 5:19 PM EST
Nautical Twilight 5:59 AM EST 5:54 PM EST
Astronomical Twilight 5:25 AM EST 6:28 PM EST
Moon 6:46 PM EST (1/28) 7:24 AM EST (1/28)
Length of Visible Light 10h 45m
Length of Day
9h 43m
Full, 98% of the Moon is Illuminated
Jan 28
Full
Feb 3
Last Quarter
Feb 10
New
Feb 17
First Quarter
Feb 25
Full

Hourly Weather History & Observations

Time (EST) Temp. Windchill Dew Point Humidity Pressure Visibility Wind Dir Wind Speed Gust Speed Precip Events Conditions
12:54 AM 3.9 °F - -4.0 °F 70% 30.42 in 10.0 mi Calm Calm - 0.00 in   Overcast
1:54 AM 3.0 °F - -5.1 °F 69% 30.41 in 10.0 mi Calm Calm - 0.00 in   Overcast
2:54 AM -0.0 °F - -6.0 °F 76% 30.42 in 10.0 mi Calm Calm - N/A   Partly Cloudy
3:54 AM -2.9 °F - -8.0 °F 79% 30.40 in 10.0 mi Calm Calm - N/A   Clear
4:54 AM -2.9 °F - -8.0 °F 79% 30.40 in 10.0 mi Calm Calm - N/A   Clear
5:54 AM -5.1 °F -13.6 °F -9.0 °F 83% 30.41 in 10.0 mi West 3.5 mph - N/A   Clear
6:54 AM -2.9 °F - -7.1 °F 82% 30.41 in 10.0 mi Calm Calm - N/A   Clear
7:54 AM 1.0 °F - -5.1 °F 75% 30.40 in 10.0 mi Calm Calm - N/A   Clear
8:54 AM 6.1 °F - -2.0 °F 69% 30.39 in 10.0 mi Calm Calm - N/A   Clear
9:54 AM 10.0 °F - -2.9 °F 56% 30.38 in 10.0 mi Calm Calm - N/A   Partly Cloudy
10:54 AM 15.1 °F - -2.0 °F 47% 30.37 in 10.0 mi Calm Calm - N/A   Overcast
11:54 AM 17.1 °F - -0.9 °F 45% 30.32 in 10.0 mi Calm Calm - 0.00 in   Overcast
1:54 PM 21.0 °F - 3.9 °F 48% 30.23 in 10.0 mi Calm Calm - 0.00 in   Overcast
2:43 PM 19.4 °F - 8.6 °F 63% 30.20 in 2.5 mi Calm Calm - 0.00 in Snow Light Snow
2:48 PM 19.4 °F - 10.4 °F 68% 30.20 in 1.2 mi Calm Calm - 0.00 in Snow Light Snow
2:54 PM 19.9 °F - 10.9 °F 68% 30.23 in 1.0 mi Calm Calm - 0.00 in Snow Light Snow
3:01 PM 19.4 °F - 12.2 °F 74% 30.19 in 0.8 mi Calm Calm - 0.00 in Snow Light Snow
3:11 PM 19.4 °F - 12.2 °F 74% 30.19 in 1.0 mi Calm Calm - 0.00 in Snow Light Snow
3:54 PM 19.0 °F - 15.1 °F 85% 30.20 in 1.2 mi Calm Calm - 0.01 in Snow Light Snow
4:06 PM 19.4 °F - 15.8 °F 86% 30.16 in 0.8 mi Calm Calm - 0.01 in Snow Light Snow
4:14 PM 19.4 °F - 15.8 °F 86% 30.16 in 1.0 mi Calm Calm - 0.01 in Snow Light Snow
4:31 PM 19.4 °F - 15.8 °F 86% 30.16 in 0.8 mi Calm Calm - 0.02 in Snow Light Snow
4:54 PM 19.0 °F - 16.0 °F 88% 30.18 in 1.0 mi Calm Calm - 0.03 in Snow Light Snow
5:08 PM 19.4 °F - 15.8 °F 86% 30.15 in 1.8 mi Calm Calm - 0.00 in Snow Light Snow
5:54 PM 18.0 °F - 15.1 °F 88% 30.18 in 1.8 mi Calm Calm - 0.02 in Snow Light Snow
6:24 PM 17.6 °F - 15.8 °F 93% 30.12 in 3.0 mi Calm Calm - 0.00 in Snow Light Snow
6:31 PM 17.6 °F - 15.8 °F 93% 30.12 in 7.0 mi Calm Calm - 0.00 in Snow Light Snow
6:54 PM 18.0 °F - 15.1 °F 88% 30.16 in 9.0 mi Calm Calm - 0.00 in Snow Light Snow
7:37 PM 17.6 °F - 15.8 °F 93% 30.10 in 2.5 mi Calm Calm - 0.00 in Snow Light Snow
7:41 PM 17.6 °F - 15.8 °F 93% 30.10 in 1.2 mi Calm Calm - 0.01 in Snow Light Snow
7:50 PM 17.6 °F - 15.8 °F 93% 30.10 in 0.8 mi Calm Calm - 0.02 in Snow Light Snow
7:54 PM 18.0 °F - 15.1 °F 88% 30.13 in 1.0 mi Calm Calm - 0.02 in Snow Light Snow
8:03 PM 17.6 °F - 15.8 °F 93% 30.09 in 2.0 mi Calm Calm - 0.00 in Snow Light Snow
8:15 PM 17.6 °F - 15.8 °F 93% 30.09 in 3.0 mi Calm Calm - 0.00 in Snow Light Snow
8:54 PM 18.0 °F - 15.1 °F 88% 30.10 in 5.0 mi Calm Calm - 0.00 in Snow Light Snow
9:48 PM 17.6 °F - 15.8 °F 93% 30.05 in 2.5 mi Calm Calm - 0.01 in Snow Light Snow
9:54 PM 18.0 °F - 15.1 °F 88% 30.08 in 1.8 mi Calm Calm - 0.01 in Snow Light Snow
10:17 PM 17.6 °F - 15.8 °F 93% 30.05 in 2.5 mi Calm Calm - 0.01 in Snow Light Snow
10:19 PM 17.6 °F - 15.8 °F 93% 30.06 in 3.0 mi Calm Calm - 0.01 in Snow Light Snow
10:41 PM 17.6 °F - 15.8 °F 93% 30.05 in 2.5 mi Calm Calm - 0.01 in Snow Light Snow
10:52 PM 17.6 °F - 15.8 °F 93% 30.05 in 3.0 mi Calm Calm - 0.01 in Snow Light Snow
10:54 PM 18.0 °F - 15.1 °F 88% 30.08 in 4.0 mi Calm Calm - 0.01 in Snow Light Snow
11:54 PM 18.0 °F - 15.1 °F 88% 30.08 in 3.0 mi Calm Calm - 0.00 in Snow Light Snow